NOAA 16 DEB

基本信息
目录编号:
42424
目录名称:
NOAA 16 DEB
国际标识:
2000-055TU
轨道中心:
EARTH
物体状态:
已陨落(2025-03-25)
发射日期:
2000-09-21 UTC
轨道信息
数据来源: 国际轨道数据
星历时间: 2025-03-19T09:19:53+0800
半长轴: 6741.393km
偏心率: 0.0009262
轨道倾角: 98.923°
近地点辐角: 313.189°
升交点赤经: 295.274°
平近点角: 46.860°
近地点: 357.014km
远地点: 369.502km
周期: 91.809分钟
每日圈数: 15.684776
详细信息
发射场:
AFWTR
轨道高度:
LEO
数据来源:
AOE Integration Group
参考系:
TEME
时间系统:
UTC
历元类型:
SGP4
2D轨道图
3D轨道图
轨道高度分析图
轨道倾角分析图
轨道综合分析图
查看轨道综合分析图